Probability
3 6 6 6 6 6 6 3 3 3 3 3 3 3 3 3 0 0 0 0 0 0 0 0 0 0 0 6 6 6 0 0 0 0 0 0 0 0 0 0 0 0 0
0 3 6 10 6 6 6 3 3 3 3 3 3 3 3 3 3 3 3 0 0 0 0 0 0 0 0 0 0 0 3 0 0 0 0 0 0 0 0 0 0 0 0
0 0 10 10 6 6 6 6 3 3 3 3 3 3 3 3 3 3 3 3 0 0 0 0 0 0 0 0 0 0 0 0 0 0 0 0 0 0 0 0 0 0 0
0 6 6 10 6 6 6 6 6 3 3 6 6 6 6 3 6 3 3 3 0 0 0 0 0 0 0 0 0 0 0 0 0 0 0 0 0 0 0 0 0 0 0
0 6 10 16 10 6 6 6 6 3 3 3 3 3 3 3 6 6 3 0 0 0 0 0 0 0 0 0 0 0 0 0 0 0 0 0 0 0 0 0 0 0 0
0 3 6 16 16 10 6 6 6 3 3 3 3 3 3 3 6 6 3 3 3 0 0 0 0 0 0 0 0 0 0 0 0 3 3 3 0 0 0 0 0 0 0
0 3 10 10 16 6 13 6 6 3 6 3 3 3 3 3 3 6 3 3 0 0 0 0 0 0 0 0 0 0 0 0 0 3 3 0 0 0 0 0 0 0 0
3 6 6 16 13 13 13 13 3 6 6 3 3 3 3 6 6 6 3 3 3 0 0 0 0 0 0 0 0 0 0 0 0 0 3 3 0 0 0 0 0 0 0
3 3 6 10 16 13 13 13 10 6 3 6 3 3 3 3 6 3 3 3 3 0 0 0 0 0 0 0 0 0 0 0 3 3 3 0 0 0 0 0 0 0 0
3 3 6 3 13 16 13 13 10 6 3 3 3 6 3 3 3 3 3 3 3 0 0 0 0 0 0 0 3 3 3 0 3 3 3 0 0 0 0 0 0 0 0
3 3 3 6 3 10 13 13 13 10 10 6 6 3 3 3 3 3 3 3 3 3 0 0 0 0 0 0 0 3 0 0 0 0 0 0 0 0 0 0 0 0 0
0 3 3 3 3 6 6 13 13 13 10 10 6 6 6 6 3 6 3 3 3 3 0 0 0 0 0 0 0 3 0 0 0 0 0 0 0 0 0 0 0 0 0
0 3 3 3 3 6 6 6 10 13 10 10 6 6 6 6 6 3 3 3 3 3 3 3 0 0 0 0 0 0 0 0 0 0 0 0 0 0 0 0 0 0 0
0 3 3 3 3 3 6 3 3 3 3 6 6 3 3 6 6 6 3 3 3 3 3 3 3 0 0 0 0 0 0 0 0 0 0 0 0 0 0 0 0 0 0
3 3 3 0 0 0 3 3 3 3 0 3 6 6 3 3 3 3 3 3 3 0 3 3 3 3 0 0 0 0 0 0 0 0 0 0 0 0 0 0 0 0 0
3 3 0 0 0 0 0 3 3 3 0 0 3 3 3 3 3 3 3 3 3 0 3 3 3 3 3 0 0 0 0 0 0 3 0 0 0 0 0 0 0 0 0
3 0 0 0 0 0 0 3 3 3 3 0 0 3 0 0 3 3 3 3 3 3 3 6 3 0 0 0 0 0 0 3 3 3 3 0 0 0 0 0 0 0 0
3 0 0 0 0 0 0 3 3 3 3 0 0 0 0 0 0 0 3 3 3 3 3 3 0 3 0 0 0 0 0 0 3 3 3 3 3 0 0 0 0 0 0
3 0 0 0 0 0 0 3 3 3 0 0 0 0 0 0 0 0 0 0 3 3 3 3 3 0 0 0 0 0 0 0 0 3 3 3 3 0 0 0 0 0 0
3 0 0 0 0 0 0 0 3 3 0 0 0 0 0 0 0 0 0 0 0 0 0 3 3 3 0 0 0 0 0 0 0 0 0 0 0 0 0 0 0 0 0
0 0 0 0 0 0 0 0 3 3 0 0 0 0 0 0 0 0 0 0 0 0 0 0 0 3 3 0 0 0 0 0 0 0 0 0 0 0 0 0 0 0 0
0 0 0 0 0 0 0 0 3 3 3 3 3 0 0 0 0 0 0 0 0 0 0 0 0 0 0 0 0 0 0 0 0 0 0 0 0 0 0 0 0 0 0
0 0 0 0 0 0 0 0 0 0 0 3 3 0 0 0 0 0 0 0 0 0 0 0 0 0 0 0 0 0 0 0 0 0 0 0 0 0 0 0 0 0 0
0 0 0 0 0 0 0 0 0 0 0 0 3 0 0 0 0 0 0 0 0 0 0 0 0 0 0 0 0 0 0 0 0 0 0 0 0 0 0 0 0 0 0
0 0 0 0 0 0 0 0 0 0 0 0 0 0 0 0 0 0 0 0 0 0 0 0 0 0 0 0 0 0 0 0 0 0 0 0 0 0 0 0 0 0 0
0 0 0 0 0 0 0 0 0 0 0 0 0 0 0 0 0 0 0 0 0 0 0 0 0 0 0 0 0 0 0 0 0 0 0 0 0 0 0 0 0 0 0
Height
5849 5850 5850 5850 5850 5849 5849 5849 5849 5849 5848 5848 5848 5847 5847 5846 5845 5844 5843 5842 5841 5840 5839 5838 5837 5836 5835 5834 5834 5833 5833 5833 5833 5833 5833 5833 5832 5832 5831 5830 5829 5828 5827
5847 5847 5847 5847 5847 5847 5847 5846 5846 5846 5846 5845 5845 5844 5844 5843 5842 5841 5840 5839 5838 5837 5836 5835 5834 5833 5832 5831 5830 5829 5829 5829 5829 5830 5830 5829 5829 5828 5827 5826 5825 5824 5823
5844 5844 5844 5844 5844 5844 5844 5843 5843 5843 5843 5842 5842 5842 5841 5840 5839 5838 5837 5836 5835 5833 5832 5831 5830 5829 5828 5828 5827 5826 5825 5825 5825 5825 5826 5825 5825 5824 5823 5822 5821 5819 5818
5841 5841 5841 5841 5841 5841 5841 5840 5840 5839 5839 5839 5839 5838 5838 5837 5836 5835 5834 5832 5831 5830 5829 5828 5827 5826 5825 5824 5823 5822 5821 5821 5821 5821 5821 5821 5820 5820 5819 5818 5816 5815 5814
5838 5838 5838 5838 5838 5838 5837 5837 5837 5836 5836 5836 5835 5835 5834 5833 5832 5831 5830 5829 5827 5826 5825 5824 5823 5822 5821 5820 5819 5818 5817 5817 5817 5817 5816 5816 5815 5815 5814 5813 5812 5810 5809
5834 5834 5835 5835 5835 5834 5834 5834 5833 5833 5832 5832 5832 5831 5830 5829 5828 5827 5826 5825 5824 5823 5821 5820 5819 5818 5817 5816 5815 5814 5813 5813 5812 5811 5811 5811 5810 5810 5809 5808 5807 5806 5805
5831 5831 5831 5831 5831 5831 5831 5830 5830 5829 5829 5828 5828 5827 5826 5825 5824 5823 5822 5821 5820 5819 5818 5816 5815 5814 5813 5812 5811 5810 5809 5808 5806 5806 5806 5806 5805 5804 5803 5802 5801 5801 5800
5827 5827 5827 5827 5827 5827 5827 5827 5826 5825 5825 5824 5823 5823 5822 5821 5820 5819 5817 5816 5815 5814 5813 5812 5811 5809 5808 5807 5806 5805 5803 5802 5801 5800 5800 5800 5799 5798 5797 5797 5796 5795 5795
5822 5822 5823 5823 5823 5823 5823 5822 5822 5821 5820 5819 5819 5818 5818 5816 5815 5814 5813 5812 5811 5810 5808 5807 5806 5804 5803 5801 5800 5799 5798 5796 5795 5795 5794 5794 5793 5792 5791 5791 5790 5790 5790
5818 5818 5818 5818 5818 5818 5818 5817 5817 5816 5816 5815 5814 5813 5813 5812 5810 5809 5808 5807 5806 5805 5803 5802 5800 5799 5797 5796 5794 5793 5792 5791 5790 5789 5789 5788 5787 5786 5785 5785 5784 5784 5784
5813 5813 5813 5813 5813 5813 5813 5813 5812 5812 5811 5810 5809 5808 5807 5807 5806 5804 5803 5802 5801 5800 5798 5796 5795 5793 5792 5790 5788 5787 5786 5785 5784 5783 5782 5782 5781 5781 5780 5779 5778 5778 5777
5808 5808 5808 5808 5808 5808 5808 5808 5807 5807 5806 5805 5804 5803 5802 5801 5800 5799 5798 5797 5796 5794 5792 5791 5789 5787 5785 5784 5782 5781 5780 5779 5778 5777 5776 5775 5775 5774 5773 5773 5772 5772 5771
5802 5802 5802 5803 5803 5803 5802 5802 5802 5802 5801 5800 5799 5798 5797 5796 5795 5794 5792 5791 5790 5788 5786 5785 5783 5781 5780 5778 5776 5775 5773 5772 5771 5770 5769 5768 5767 5767 5767 5766 5765 5765 5764
5796 5796 5797 5797 5797 5797 5797 5797 5796 5796 5795 5795 5794 5793 5791 5790 5789 5788 5786 5785 5784 5782 5780 5779 5777 5775 5774 5772 5770 5768 5767 5765 5764 5763 5762 5761 5760 5760 5759 5759 5758 5758 5757
5790 5791 5791 5791 5791 5791 5791 5791 5791 5790 5789 5789 5788 5787 5786 5784 5783 5781 5780 5779 5777 5776 5774 5773 5771 5769 5768 5766 5764 5762 5760 5759 5758 5756 5755 5754 5753 5752 5752 5752 5751 5751 5751
5785 5785 5785 5785 5785 5785 5785 5785 5784 5784 5784 5783 5782 5781 5779 5778 5777 5775 5774 5772 5771 5769 5768 5766 5765 5763 5761 5759 5757 5755 5754 5753 5751 5750 5749 5748 5746 5745 5745 5744 5744 5744 5744
5779 5779 5779 5779 5779 5779 5779 5779 5778 5778 5777 5776 5775 5774 5773 5772 5770 5769 5767 5765 5764 5762 5761 5759 5758 5756 5754 5752 5750 5748 5747 5746 5744 5743 5742 5740 5739 5738 5737 5737 5737 5737 5737
5772 5772 5772 5773 5773 5772 5772 5772 5772 5771 5770 5770 5769 5768 5766 5765 5763 5762 5760 5758 5757 5755 5753 5752 5750 5748 5747 5745 5743 5741 5740 5738 5737 5736 5734 5733 5731 5730 5729 5729 5729 5729 5730
5765 5765 5765 5765 5766 5765 5765 5765 5765 5764 5763 5763 5762 5761 5759 5758 5756 5754 5753 5751 5750 5748 5746 5745 5743 5741 5739 5737 5735 5733 5732 5731 5729 5728 5726 5724 5723 5722 5722 5721 5722 5722 5722
5758 5758 5758 5758 5758 5758 5758 5758 5757 5757 5756 5755 5754 5753 5752 5750 5749 5747 5745 5744 5742 5740 5739 5737 5735 5733 5731 5729 5727 5725 5724 5723 5721 5720 5718 5716 5715 5714 5713 5713 5713 5714 5714
5751 5751 5750 5750 5750 5750 5750 5750 5749 5749 5748 5747 5746 5745 5744 5742 5741 5739 5738 5736 5735 5733 5731 5729 5727 5725 5723 5721 5719 5717 5716 5714 5713 5711 5710 5708 5707 5706 5705 5705 5705 5705 5706
5743 5743 5743 5743 5742 5742 5742 5741 5741 5740 5739 5739 5738 5737 5735 5734 5733 5731 5730 5728 5727 5725 5723 5721 5719 5717 5715 5713 5711 5709 5708 5706 5705 5703 5702 5700 5699 5698 5697 5697 5697 5697 5697
5736 5736 5735 5735 5735 5734 5734 5733 5733 5732 5731 5730 5729 5728 5727 5725 5724 5723 5721 5720 5718 5717 5715 5713 5711 5709 5707 5705 5703 5701 5699 5698 5696 5695 5694 5692 5691 5690 5689 5688 5688 5688 5688
5728 5728 5727 5727 5727 5726 5725 5725 5724 5723 5722 5721 5720 5719 5718 5717 5715 5714 5712 5711 5709 5708 5706 5705 5703 5701 5699 5697 5695 5693 5691 5690 5688 5687 5685 5684 5683 5681 5681 5680 5679 5679 5679
5720 5720 5719 5719 5718 5717 5717 5716 5715 5714 5713 5712 5711 5710 5709 5708 5706 5705 5703 5702 5700 5699 5698 5696 5694 5693 5691 5689 5687 5685 5683 5682 5680 5679 5678 5676 5675 5673 5672 5671 5671 5671 5671
5712 5711 5711 5710 5709 5709 5708 5707 5706 5705 5704 5703 5702 5701 5700 5698 5697 5695 5694 5692 5691 5689 5688 5687 5685 5684 5682 5680 5678 5676 5675 5673 5672 5670 5669 5668 5667 5666 5664 5663 5662 5662 5662
Wind_Speed
11 11 11 10 11 11 11 11 11 11 11 11 10 10 10 10 11 11 11 11 11 12 12 12 12 12 13 14 14 14 14 15 15 15 15 15 15 15 15 15 15 16 17
12 12 11 11 10 11 11 11 11 12 11 11 11 11 11 10 11 11 12 12 12 13 13 13 13 13 13 13 14 15 15 15 15 15 15 15 16 16 16 16 16 17 17
13 12 12 11 11 11 12 12 12 12 12 11 11 11 11 11 11 12 12 12 13 14 14 14 14 14 14 14 14 15 15 15 15 15 16 16 16 16 17 17 18 17 17
14 13 13 13 13 12 12 12 12 12 12 12 11 11 12 11 12 12 13 13 14 14 14 15 15 14 14 15 15 15 16 16 16 16 16 17 17 17 17 18 19 18 17
14 14 14 14 14 13 13 13 12 12 12 12 12 12 12 12 13 14 14 13 14 14 14 15 15 15 15 15 15 16 16 16 16 16 17 17 18 18 18 19 19 19 18
15 15 15 15 14 14 13 13 13 13 13 13 13 13 13 13 14 14 14 14 14 14 15 15 16 16 16 16 16 16 17 17 18 18 18 18 19 19 20 20 19 19 18
16 16 16 15 15 15 14 14 14 13 13 13 13 13 14 14 14 14 14 14 15 15 15 16 16 16 16 17 17 17 18 18 19 19 19 20 20 20 20 20 20 19 20
17 17 17 16 15 15 15 15 14 14 14 14 14 14 15 14 15 15 15 15 16 16 16 16 17 17 17 18 18 19 19 19 20 20 20 21 20 21 20 20 20 20 20
16 16 17 16 16 16 16 16 16 15 15 16 16 15 15 15 16 16 16 16 16 17 17 17 18 19 19 19 19 20 20 20 20 20 19 20 20 20 20 20 20 20 20
17 17 17 17 17 18 18 17 16 17 16 17 17 17 16 16 17 16 16 16 17 17 18 19 20 20 20 21 21 21 20 20 20 20 19 20 19 20 20 20 20 21 21
17 17 17 18 18 18 19 18 17 17 17 17 18 18 17 17 17 17 17 17 17 18 19 20 21 21 21 21 21 21 21 21 21 22 21 21 21 20 20 20 20 21 21
19 19 18 18 19 18 18 19 18 18 18 18 18 18 18 18 18 18 18 19 19 20 21 21 21 21 22 22 22 22 22 22 23 23 22 22 22 21 21 21 21 22 22
19 19 19 19 19 19 19 19 19 19 20 19 19 19 19 19 19 19 20 20 21 21 21 21 21 21 21 21 22 22 22 23 23 23 24 23 23 22 22 22 22 22 22
19 19 19 19 19 19 20 20 20 21 21 21 21 21 21 21 21 21 21 22 22 21 21 21 21 21 21 21 22 22 22 22 23 23 23 22 23 22 22 22 22 22 22
20 20 20 20 19 20 20 21 21 22 22 22 22 21 22 22 22 23 23 23 23 22 22 22 21 21 21 22 22 22 22 22 22 22 22 22 22 22 22 22 22 22 22
20 20 20 21 21 21 21 22 23 23 23 23 23 23 23 23 23 23 23 23 23 23 22 22 22 22 22 22 22 23 23 23 22 22 22 22 22 22 22 23 23 22 22
21 21 22 22 22 22 22 23 23 24 24 24 24 24 24 24 24 24 24 24 24 24 23 23 23 23 23 23 23 22 22 23 23 23 22 22 23 23 23 23 23 23 23
22 22 22 23 23 23 23 23 24 24 25 25 25 25 25 25 25 24 24 24 24 24 24 24 24 24 25 24 24 23 23 23 23 24 24 24 24 24 24 24 24 23 23
23 23 23 24 24 25 25 25 25 25 26 26 26 26 26 26 25 24 24 24 24 24 24 24 24 25 25 25 25 24 24 24 25 25 25 24 25 25 24 24 24 24 24
23 24 25 26 26 26 26 26 27 27 27 26 26 26 27 27 26 25 25 25 25 25 25 25 25 25 25 25 25 24 25 25 25 26 26 25 25 25 25 25 25 25 25
25 26 26 27 27 27 26 27 28 28 28 28 27 27 27 27 27 27 26 26 26 25 25 25 25 25 25 25 25 25 25 25 25 26 26 25 25 26 25 26 25 25 26
26 26 26 26 27 27 27 27 27 28 29 28 28 28 28 28 28 28 27 27 27 26 26 26 25 26 26 25 25 25 26 26 25 25 25 25 26 26 26 26 26 26 27
26 25 26 26 27 27 27 28 28 28 28 29 29 29 29 28 28 28 28 28 28 27 27 26 26 25 25 26 26 26 26 26 26 26 26 25 26 26 26 26 27 27 28
26 26 26 27 27 28 28 28 28 28 29 29 29 29 29 29 29 30 30 29 29 28 28 27 27 26 26 26 27 26 26 26 26 26 26 25 26 26 26 26 27 28 28
27 27 27 27 27 28 28 29 29 29 29 29 29 29 29 29 30 30 30 30 30 29 28 28 28 28 27 27 27 27 27 26 26 25 25 26 26 26 26 26 27 28 28
27 27 27 27 27 27 27 28 28 29 29 29 29 29 30 30 30 29 29 29 29 29 29 28 28 28 28 28 28 28 27 27 26 26 26 26 27 27 27 27 27 28 29
Wind_Direction
257 258 257 259 260 260 261 261 259 259 259 262 265 267 271 275 276 277 278 280 280 281 282 280 279 280 280 279 275 272 271 269 268 269 271 273 274 274 276 279 280 279 277
256 257 258 260 263 264 264 265 264 259 260 264 269 270 272 276 280 281 283 285 284 282 282 281 281 281 282 281 278 273 268 267 266 267 271 273 274 274 277 279 280 280 278
254 257 259 262 264 264 265 265 264 262 263 267 269 272 273 276 280 282 284 287 286 284 282 279 282 282 282 281 280 277 271 267 266 266 268 271 274 277 278 280 280 280 279
253 256 258 262 265 266 266 265 264 264 265 267 270 274 277 280 282 284 285 286 286 285 284 282 283 283 282 283 281 277 273 268 265 266 268 270 272 275 278 280 282 281 279
256 259 260 263 267 269 268 266 265 264 266 269 272 275 279 281 283 284 285 285 284 284 285 286 283 283 282 283 285 281 275 271 266 266 267 269 272 274 277 279 279 279 278
257 260 261 263 265 267 268 267 269 269 268 270 272 275 277 280 284 285 284 283 282 282 284 285 284 283 280 279 281 281 277 272 270 268 268 270 271 273 275 276 276 275 275
258 260 260 262 264 265 267 269 269 269 270 270 271 274 276 280 284 284 283 282 281 281 283 286 286 284 280 279 279 279 278 274 272 270 268 272 274 275 275 274 274 273 271
258 260 261 261 262 263 265 267 268 267 270 272 272 274 276 280 283 284 283 282 281 281 281 284 286 285 283 282 281 280 278 274 271 271 271 273 275 276 275 273 273 272 270
256 259 261 262 262 262 264 267 267 270 274 275 275 275 277 280 284 284 283 282 282 282 281 283 286 288 286 285 283 282 280 276 272 271 272 274 275 275 273 272 271 270 269
257 260 262 263 264 264 265 267 270 272 276 277 276 275 277 280 284 283 284 284 285 285 284 284 286 287 286 284 282 280 279 276 272 272 273 276 276 275 274 271 270 269 269
257 260 262 264 265 266 267 267 270 274 275 275 276 275 276 280 283 283 284 283 285 287 286 286 287 287 286 286 282 279 277 275 271 271 273 276 275 273 272 271 270 269 269
258 259 261 264 265 266 267 268 271 273 275 276 278 278 278 280 281 283 283 283 285 288 288 287 288 289 287 286 284 280 277 275 273 271 273 274 273 270 271 272 271 270 269
258 258 260 263 265 265 265 267 271 272 274 276 277 279 278 279 281 282 283 283 283 286 289 290 290 290 288 286 284 281 279 278 274 273 274 274 272 269 269 270 271 270 270
258 258 260 262 265 266 267 267 270 272 274 276 277 278 279 279 280 282 283 283 283 285 287 288 290 291 290 289 287 284 282 280 277 275 275 274 272 270 269 269 269 270 270
257 259 260 262 264 267 268 269 269 272 274 276 278 279 280 281 282 282 283 283 284 284 285 287 288 289 290 291 290 286 285 283 279 277 276 277 278 273 269 269 268 268 268
258 260 262 264 265 267 269 270 271 273 274 277 280 279 282 284 284 284 285 284 283 282 284 285 287 289 290 291 291 288 285 283 281 279 279 280 278 275 270 268 266 267 267
259 260 263 266 267 269 270 272 273 275 276 277 280 282 282 283 285 285 285 286 283 282 283 284 286 287 288 288 289 288 286 283 281 279 280 280 278 275 270 267 266 267 267
260 262 263 267 268 269 270 272 273 275 277 278 280 282 282 283 286 287 285 286 285 284 285 285 285 286 287 287 287 285 284 282 280 280 281 280 279 276 271 267 265 266 266
263 264 265 268 269 269 269 270 272 274 276 279 281 281 282 283 285 286 285 285 285 285 285 285 286 286 287 287 286 284 282 282 282 280 281 280 278 276 271 267 265 264 263
266 266 267 268 268 269 268 269 271 273 275 278 280 281 281 282 284 285 286 286 285 285 284 285 286 286 286 286 284 283 282 283 283 281 281 280 277 275 271 268 264 262 260
269 269 269 269 270 270 269 269 271 273 275 277 279 280 281 282 284 284 285 286 286 285 285 285 286 286 286 285 283 281 281 282 282 283 282 278 276 274 271 268 265 262 260
273 272 270 269 270 270 271 272 274 275 276 277 279 280 280 281 283 283 284 285 285 286 285 285 286 286 286 285 283 283 282 282 283 283 282 279 277 273 271 269 266 262 261
273 273 272 272 272 271 273 274 275 276 276 277 278 280 280 280 282 283 284 284 283 284 284 284 284 285 285 285 284 283 283 283 283 283 283 281 278 275 272 269 267 264 263
274 273 273 273 273 274 274 274 274 275 276 277 277 277 280 281 282 283 283 283 282 282 282 282 283 284 283 284 284 283 283 283 282 282 282 281 279 278 275 272 268 266 265
273 273 274 274 273 274 275 275 275 275 275 276 276 277 279 281 283 284 284 282 282 282 281 281 282 282 282 282 282 282 282 282 282 282 281 281 279 279 276 273 270 266 265
274 274 274 274 275 275 276 277 277 276 276 276 277 278 280 281 283 284 284 282 282 281 280 281 282 283 283 281 280 279 279 280 280 280 281 280 280 278 276 273 270 269 267